Theta_e
340 344 343 342 346 347 351 351 350 348 349 350 348 347 346 346 346 348 353 353 352 351 349 350 349 348 347 347 345 343 339 341 342 337 335 335 337 336 337 338 340 344 349
333 340 347 347 347 346 349 349 352 352 351 351 351 350 349 346 346 346 350 354 352 350 351 348 347 346 346 345 346 343 339 339 341 336 332 327 331 335 338 337 338 337 341
330 332 335 337 345 348 347 350 349 354 354 353 351 347 347 347 343 344 344 352 353 351 351 349 348 347 347 345 345 344 340 335 337 337 330 324 323 326 333 336 339 339 337
329 328 329 330 335 341 350 351 351 352 354 353 350 349 346 344 346 346 347 351 355 353 351 349 348 346 348 346 345 346 344 338 333 334 338 331 330 326 323 332 336 337 337
327 327 329 330 335 349 354 353 352 350 351 349 347 344 343 347 348 344 343 343 351 352 352 350 349 346 346 346 343 345 342 343 337 335 335 334 331 332 328 323 329 338 339
327 328 330 331 332 344 351 353 351 350 350 347 347 346 344 343 341 342 342 344 346 351 351 351 349 348 345 346 346 346 345 343 342 339 339 335 332 333 331 327 328 332 336
324 325 328 328 329 331 335 341 346 346 349 348 346 347 346 345 343 344 344 343 344 345 349 351 350 348 346 345 347 347 346 344 342 339 340 341 339 337 337 332 329 330 334
323 324 326 325 328 329 330 331 330 332 335 344 346 346 346 346 346 346 346 345 345 346 349 350 351 350 349 346 347 346 346 347 344 341 340 340 341 340 341 336 333 328 330
320 322 323 323 325 327 327 328 327 328 330 333 336 340 346 346 346 346 347 347 347 347 348 348 350 351 351 350 347 347 347 347 347 345 343 343 343 343 343 343 340 336 329
318 321 322 324 326 326 326 327 326 326 329 331 332 335 338 342 347 348 345 346 347 347 348 346 347 349 349 350 349 348 348 348 349 349 347 346 347 345 346 345 343 340 337
317 319 323 325 325 325 325 324 324 324 325 329 330 332 334 336 337 340 346 348 348 347 348 347 346 345 347 348 348 344 345 345 346 348 348 346 348 346 345 345 342 341 340
318 321 323 322 322 322 322 322 322 323 324 328 328 330 331 334 334 334 337 345 347 344 347 345 346 345 341 337 340 342 341 337 339 342 346 346 347 345 346 345 343 343 342
320 321 320 320 319 320 320 321 321 322 324 325 326 326 327 330 332 334 335 340 342 343 344 345 345 338 335 336 332 332 334 334 333 332 337 344 344 344 346 345 343 343 342
320 319 317 317 318 319 318 319 320 322 323 324 325 326 327 329 331 333 335 337 339 340 340 343 342 338 335 335 332 333 333 333 332 333 333 338 344 345 346 345 344 343 341
318 318 316 315 316 316 317 319 319 321 322 323 325 325 328 331 329 330 331 335 337 340 341 340 341 340 337 337 331 331 329 331 329 332 333 335 344 344 345 347 345 343 341
318 319 318 317 317 316 317 319 319 319 321 323 323 325 326 327 328 327 328 331 332 337 340 339 340 340 339 331 331 332 328 329 330 331 332 338 339 338 337 337 339 344 342
318 317 317 317 316 315 317 316 317 318 320 323 324 324 325 325 325 326 327 327 330 338 338 338 338 340 339 327 324 328 329 329 330 331 333 334 337 332 335 333 333 334 335
318 318 317 317 315 315 316 318 318 317 320 322 321 324 325 325 325 326 327 326 329 330 333 334 333 338 340 326 323 326 332 333 333 334 333 333 333 333 333 332 335 338 340
318 318 317 316 315 315 316 316 316 316 319 321 322 324 325 324 325 322 327 325 328 327 328 331 332 331 334 323 322 324 333 334 334 333 333 332 330 326 324 333 334 336 340
320 319 318 316 315 314 313 313 314 314 311 318 322 325 326 325 325 326 323 324 326 329 331 332 332 327 332 316 315 323 333 332 333 334 336 329 332 324 321 333 336 334 338
321 320 317 316 315 314 312 311 312 312 314 320 323 324 326 325 326 326 326 328 331 330 329 329 329 328 326 322 314 315 333 332 333 334 334 336 318 315 313 315 337 336 337
320 319 316 316 316 315 312 311 311 313 319 321 323 324 325 326 327 324 324 328 328 329 328 328 327 327 324 317 318 314 316 321 329 328 333 323 312 309 313 319 313 316 326
318 317 315 314 317 317 315 313 314 314 321 320 322 322 324 325 325 323 323 325 326 326 325 325 324 323 326 325 313 312 315 317 327 329 322 311 307 308 312 310 313 319 330
317 314 313 315 314 315 317 318 318 318 319 320 322 322 321 323 320 319 318 315 318 322 324 320 316 315 314 316 324 327 327 321 325 324 323 320 319 316 318 319 320 327 328
318 317 315 315 314 317 316 318 319 319 316 320 321 321 319 321 316 312 310 311 308 306 317 316 314 311 311 307 300 305 315 318 315 322 324 325 326 325 326 325 325 326 327
318 316 315 315 314 314 321 319 319 316 315 318 320 318 315 314 320 318 318 306 304 300 298 300 308 307 301 298 297 297 296 297 302 316 320 322 324 324 324 323 324 325 324
Wind_Speed
9 14 13 9 4 7 10 16 16 19 11 7 7 6 7 4 3 6 10 10 10 11 11 8 7 6 8 9 8 6 6 8 4 2 3 4 5 6 6 5 4 5 7
13 10 11 8 11 12 12 14 17 16 15 11 12 8 8 4 4 5 8 10 11 12 11 10 8 8 6 7 8 8 3 5 5 4 1 2 4 4 8 5 6 7 5
12 10 10 8 9 12 9 10 13 14 15 14 4 1 2 2 1 4 4 9 12 12 14 13 10 9 9 8 9 9 9 5 3 6 5 2 5 1 3 7 7 7 5
9 8 8 7 7 6 7 10 7 9 11 8 6 9 8 9 10 10 9 7 12 13 14 14 14 12 9 10 10 10 10 6 6 1 6 1 5 4 3 2 3 5 7
11 9 8 7 6 7 6 6 6 4 7 6 6 5 5 5 6 3 9 6 10 13 15 15 14 12 10 11 11 8 9 10 6 6 3 4 3 3 3 4 4 2 4
8 8 8 7 6 6 7 7 7 7 7 7 7 8 8 7 5 5 6 7 7 9 14 15 14 14 13 13 11 12 12 11 9 5 5 5 5 5 4 3 5 4 4
9 8 8 7 6 7 6 5 7 8 8 8 8 10 11 10 10 10 8 8 8 7 12 15 15 13 15 14 13 12 12 11 10 9 9 6 5 4 4 4 3 5 3
5 6 6 4 5 10 11 11 8 8 8 6 8 7 9 6 7 10 10 9 10 10 12 13 16 19 17 15 15 11 12 11 10 11 10 7 8 5 6 5 5 3 3
7 10 7 7 7 7 7 7 8 7 7 7 6 7 8 8 8 12 10 9 11 11 11 12 14 16 17 19 18 13 14 13 11 12 11 10 10 8 6 6 6 7 6
8 7 7 7 6 6 5 6 4 3 5 7 7 8 8 8 9 9 10 11 11 11 13 12 12 17 16 17 17 15 14 13 11 11 12 12 9 8 7 7 7 6 8
8 7 6 6 6 5 8 7 7 8 8 6 5 6 9 12 9 9 11 12 12 11 11 11 12 14 17 17 14 7 7 12 14 13 13 14 13 9 8 7 6 7 7
8 7 7 6 7 7 6 5 5 6 6 7 10 10 10 10 12 12 11 12 13 9 9 9 8 7 3 10 5 10 16 4 2 5 12 13 8 11 10 8 10 9 8
8 6 6 6 5 5 4 5 6 6 7 8 9 10 11 11 12 13 13 11 9 8 9 9 10 6 12 12 11 16 4 3 1 5 9 13 10 11 9 10 9 8 7
8 6 5 4 2 2 1 3 5 6 6 8 9 12 12 11 11 11 10 9 9 10 10 10 9 10 14 11 13 17 17 15 13 22 12 14 12 13 12 10 11 8 8
6 5 4 4 4 2 3 4 5 5 5 7 9 11 11 11 11 11 11 10 11 11 12 11 8 11 14 11 13 12 14 21 21 20 17 15 16 16 15 9 10 9 9
7 7 7 6 3 3 3 4 5 6 6 7 9 10 11 12 12 12 12 11 13 12 11 11 10 13 11 17 21 16 10 11 13 14 11 10 7 10 15 17 14 14 12
8 8 6 4 4 1 2 5 6 7 7 7 9 10 11 11 14 14 13 13 13 11 11 10 9 13 15 18 19 18 11 10 9 8 5 6 7 8 7 10 13 16 16
8 6 5 4 3 1 3 5 6 7 7 8 8 9 11 14 16 19 15 12 9 7 7 7 7 8 10 15 17 19 14 10 8 6 7 8 10 11 12 7 9 10 11
7 7 6 4 4 0 3 6 7 6 7 9 9 10 10 13 15 15 13 6 6 4 4 4 5 6 6 12 17 16 11 10 10 7 7 8 7 9 12 11 13 13 10
6 6 6 4 3 1 2 5 7 7 7 9 10 10 12 10 14 11 14 8 7 5 2 2 0 3 4 4 5 12 6 9 8 10 11 13 15 12 16 15 14 12 11
8 7 6 6 4 2 1 5 7 9 7 9 10 10 9 9 10 8 9 12 7 3 6 7 5 7 6 4 6 3 3 4 5 6 6 6 3 6 7 9 7 9 7
7 7 6 5 4 3 1 6 8 9 7 10 11 10 8 8 6 4 9 10 12 9 9 7 6 5 4 5 7 4 3 2 3 2 3 4 6 6 8 3 7 10 9
7 5 7 5 4 4 3 6 9 8 10 10 12 11 9 4 5 5 6 4 6 6 10 5 6 8 5 6 10 11 9 9 4 3 6 8 7 8 7 6 8 8 5
7 6 6 4 3 3 4 7 8 8 6 9 13 13 9 6 6 5 5 4 4 4 4 4 5 4 4 6 5 6 4 7 7 7 4 2 3 3 6 4 3 3 3
5 6 6 4 4 4 5 5 6 6 6 1 11 14 4 1 3 3 3 4 2 3 3 3 2 3 4 3 4 5 4 3 3 5 2 3 3 3 3 3 3 2 3
5 5 6 5 4 3 5 6 4 3 6 5 5 6 5 4 2 2 2 5 4 7 10 10 4 3 7 3 3 5 1 1 5 2 3 3 2 4 3 3 2 2 4
Wind_Direction
116 149 168 203 183 186 179 186 189 195 186 195 194 208 215 196 208 206 206 203 203 201 202 208 205 191 202 207 201 200 201 222 206 152 298 282 262 265 256 246 229 223 223
106 116 158 185 202 201 189 194 198 195 198 194 197 200 199 195 178 191 215 206 206 203 198 203 204 201 202 212 208 195 179 220 174 171 120 283 313 275 243 247 245 244 218
119 117 119 135 182 213 218 200 201 199 196 204 185 48 78 333 221 207 194 211 204 207 206 203 205 202 203 210 214 210 206 205 216 200 150 155 225 289 255 240 234 235 222
120 126 120 109 112 152 196 201 195 196 206 205 202 208 208 214 226 228 230 198 203 207 209 211 207 204 201 206 207 213 213 199 214 205 232 216 148 191 310 308 262 240 235
141 140 144 140 116 91 100 159 182 223 203 189 208 205 211 217 237 229 233 206 206 209 208 209 212 214 212 210 196 193 198 207 192 191 164 205 204 174 158 272 303 306 247
153 159 164 148 141 135 139 157 183 219 215 205 217 211 225 237 235 237 236 236 221 215 216 211 211 215 218 216 208 204 206 208 216 193 187 179 179 204 175 201 237 236 279
164 159 156 164 168 171 169 167 181 213 223 212 212 214 223 227 228 236 237 234 237 223 223 213 212 217 216 218 218 215 215 211 206 200 214 218 210 174 178 180 225 229 259
148 149 149 113 72 66 63 60 46 27 3 339 296 258 223 223 228 234 232 231 238 235 240 214 216 221 216 211 212 215 217 213 214 207 211 211 226 204 200 179 164 261 250
128 118 110 100 92 81 68 62 40 14 359 340 328 303 270 248 230 235 233 238 239 241 232 226 220 225 225 216 213 215 209 211 204 213 213 211 224 228 217 208 197 222 248
120 120 106 106 87 76 74 72 56 14 329 325 323 315 310 300 269 245 235 234 239 237 247 250 241 233 229 226 219 211 220 207 207 210 209 209 211 217 209 215 210 198 223
128 116 107 91 89 75 43 26 11 353 346 328 311 299 299 300 292 280 268 248 238 232 230 239 249 248 236 236 220 220 223 230 215 210 210 211 207 204 217 205 210 215 206
123 107 90 77 56 48 36 1 344 340 324 318 317 309 302 290 289 287 276 258 245 229 231 239 250 253 97 57 322 255 249 287 354 249 224 222 211 212 207 212 212 221 210
100 98 86 79 65 43 3 354 342 316 312 315 312 308 306 300 295 288 283 268 257 238 232 237 235 193 148 151 145 131 265 199 258 266 279 249 209 219 211 215 210 214 218
134 130 92 73 83 203 295 314 309 303 301 312 314 315 305 299 297 293 289 279 267 258 242 231 226 176 176 177 170 157 160 169 229 246 218 248 236 227 217 210 215 205 208
133 129 152 206 219 245 279 285 299 299 290 297 305 303 304 292 292 294 293 284 276 261 245 238 205 186 183 184 189 184 192 202 210 219 218 224 228 223 218 210 218 205 210
156 177 189 187 189 271 306 319 312 303 302 295 295 300 301 300 293 292 293 285 275 258 243 232 205 194 199 199 205 201 211 212 214 217 216 217 195 218 214 220 214 203 203
182 187 190 175 187 282 330 329 318 311 303 293 297 305 305 308 302 295 292 282 284 280 241 237 217 203 205 205 204 205 209 203 205 202 185 190 217 210 227 219 227 233 218
185 181 189 187 197 311 333 321 317 313 304 295 294 301 316 321 318 310 280 273 268 262 244 225 208 199 207 203 210 220 227 231 235 221 192 207 220 224 225 217 226 223 224
180 191 190 178 169 284 330 328 320 315 309 297 301 303 314 324 326 333 337 288 265 272 266 232 207 193 212 213 206 199 205 208 210 215 217 208 215 205 207 224 239 235 220
167 174 171 156 164 278 355 339 312 309 305 303 302 301 304 304 311 309 309 302 283 252 271 95 160 165 188 178 198 180 190 206 215 227 238 231 239 227 207 216 214 219 215
174 180 162 173 209 221 330 310 301 292 289 296 297 293 284 276 278 308 321 350 11 42 79 74 69 70 73 69 103 66 148 194 202 216 216 225 233 215 208 217 229 213 167
170 185 164 178 209 225 226 291 290 288 300 301 311 304 295 288 318 6 323 351 3 48 48 35 49 58 71 59 111 115 108 120 120 183 134 100 106 84 82 90 95 84 91
182 170 176 176 225 244 209 273 271 303 312 327 321 322 315 335 0 347 326 341 4 63 61 3 47 30 18 82 79 66 59 55 69 56 103 125 114 108 74 83 80 92 99
165 177 169 190 255 267 258 244 274 291 311 329 334 329 358 15 29 360 5 3 354 25 52 54 39 29 359 29 30 48 42 76 70 72 55 90 91 91 116 90 78 91 106
173 173 175 209 242 272 296 283 274 303 321 91 337 308 296 127 84 57 1 2 26 344 70 59 82 60 53 36 34 55 62 38 79 88 68 63 12 29 52 89 106 108 102
169 179 186 187 250 271 312 311 269 276 300 316 255 310 358 345 140 72 65 97 37 8 38 37 55 56 68 61 25 42 29 135 150 79 120 130 100 82 22 31 62 76 90